TimeCST,TemperatureF,Dew PointF,Humidity,Sea Level PressureIn,VisibilityMPH,Wind Direction,Wind SpeedMPH,Gust SpeedMPH,PrecipitationIn,Events,Conditions,WindDirDegrees,DateUTC
12:15 AM,21.2,19.4,93,29.77,10.0,Calm,Calm,-,N/A,,Mostly Cloudy,0,2013-01-19 06:15:00
12:35 AM,19.4,19.4,100,29.77,7.0,Calm,Calm,-,N/A,,Scattered Clouds,0,2013-01-19 06:35:00
12:55 AM,19.4,19.4,100,29.77,7.0,Calm,Calm,-,N/A,,Scattered Clouds,0,2013-01-19 06:55:00
1:15 AM,21.2,19.4,93,29.77,7.0,Calm,Calm,-,N/A,,Scattered Clouds,0,2013-01-19 07:15:00
1:35 AM,21.2,19.4,93,29.76,10.0,Calm,Calm,-,N/A,,Clear,0,2013-01-19 07:35:00
1:55 AM,21.2,19.4,93,29.76,10.0,Calm,Calm,-,N/A,,Clear,0,2013-01-19 07:55:00
2:15 AM,21.2,19.4,93,29.76,10.0,Calm,Calm,-,N/A,,Clear,0,2013-01-19 08:15:00
2:35 AM,21.2,19.4,93,29.74,10.0,SSE,3.5,-,N/A,,Clear,150,2013-01-19 08:35:00
2:55 AM,21.2,19.4,93,29.73,10.0,South,4.6,-,N/A,,Clear,170,2013-01-19 08:55:00
3:15 AM,23.0,21.2,93,29.71,10.0,South,5.8,-,N/A,,Clear,170,2013-01-19 09:15:00
3:35 AM,23.0,21.2,93,29.70,10.0,SE,3.5,-,N/A,,Scattered Clouds,140,2013-01-19 09:35:00
3:55 AM,23.0,21.2,93,29.68,7.0,South,5.8,-,N/A,,Mostly Cloudy,170,2013-01-19 09:55:00
4:15 AM,23.0,21.2,93,29.68,7.0,Calm,Calm,-,N/A,,Clear,0,2013-01-19 10:15:00
4:35 AM,23.0,21.2,93,29.68,7.0,Calm,Calm,-,N/A,,Clear,0,2013-01-19 10:35:00
4:55 AM,21.2,21.2,100,29.68,7.0,Calm,Calm,-,N/A,,Clear,0,2013-01-19 10:55:00
5:15 AM,21.2,21.2,100,29.69,7.0,Calm,Calm,-,N/A,,Clear,0,2013-01-19 11:15:00
5:35 AM,21.2,19.4,93,29.69,5.0,West,3.5,-,N/A,,Clear,270,2013-01-19 11:35:00
5:55 AM,21.2,21.2,100,29.69,5.0,West,3.5,-,N/A,,Clear,280,2013-01-19 11:55:00
7:15 AM,21.2,21.2,100,29.68,5.0,Calm,Calm,-,N/A,,Clear,0,2013-01-19 13:15:00
8:35 AM,21.2,21.2,100,29.65,3.0,South,4.6,-,N/A,,Clear,190,2013-01-19 14:35:00
9:55 AM,32.0,28.4,87,29.66,10.0,West,12.7,18.4,N/A,,Scattered Clouds,280,2013-01-19 15:55:00
10:15 AM,32.0,28.4,87,29.66,10.0,West,12.7,17.3,N/A,,Mostly Cloudy,280,2013-01-19 16:15:00
10:35 AM,32.0,28.4,87,29.67,10.0,WNW,12.7,19.6,N/A,,Overcast,300,2013-01-19 16:35:00
11:15 AM,32.0,28.4,87,29.66,10.0,WNW,9.2,17.3,N/A,,Overcast,290,2013-01-19 17:15:00
11:35 AM,32.0,28.4,87,29.66,10.0,WNW,10.4,-,N/A,,Overcast,300,2013-01-19 17:35:00
11:55 AM,32.0,28.4,87,29.66,10.0,WNW,13.8,19.6,N/A,,Overcast,300,2013-01-19 17:55:00
12:15 PM,32.0,28.4,87,29.65,10.0,NW,16.1,25.3,N/A,,Overcast,310,2013-01-19 18:15:00
12:35 PM,32.0,28.4,87,29.65,10.0,NW,12.7,21.9,N/A,,Overcast,310,2013-01-19 18:35:00
12:55 PM,33.8,26.6,75,29.64,10.0,WNW,16.1,26.5,N/A,,Overcast,300,2013-01-19 18:55:00
1:15 PM,33.8,26.6,75,29.63,10.0,NW,16.1,24.2,N/A,,Overcast,310,2013-01-19 19:15:00
1:35 PM,33.8,26.6,75,29.63,10.0,WNW,19.6,25.3,N/A,,Overcast,300,2013-01-19 19:35:00
1:55 PM,33.8,26.6,75,29.63,10.0,NW,16.1,23.0,N/A,,Overcast,310,2013-01-19 19:55:00
2:15 PM,33.8,23.0,65,29.62,10.0,NW,23.0,31.1,N/A,,Overcast,310,2013-01-19 20:15:00
2:35 PM,33.8,23.0,65,29.62,10.0,WNW,19.6,31.1,N/A,,Overcast,300,2013-01-19 20:35:00
2:55 PM,32.0,17.6,55,29.63,10.0,NW,19.6,34.5,N/A,,Mostly Cloudy,310,2013-01-19 20:55:00
3:15 PM,30.2,15.8,55,29.65,10.0,NW,21.9,39.1,N/A,,Mostly Cloudy,320,2013-01-19 21:15:00
3:35 PM,26.6,12.2,55,29.69,7.0,NW,29.9,36.8,N/A,,Scattered Clouds,320,2013-01-19 21:35:00
3:55 PM,21.2,10.4,63,29.72,5.0,NW,24.2,38.0,N/A,,Haze,310,2013-01-19 21:55:00
4:15 PM,19.4,8.6,63,29.75,7.0,NW,26.5,38.0,N/A,,Overcast,320,2013-01-19 22:15:00
4:35 PM,17.6,10.4,73,29.78,1.2,NW,21.9,28.8,N/A,Snow,Light Snow,320,2013-01-19 22:35:00
4:55 PM,15.8,8.6,73,29.81,3.0,NW,17.3,31.1,N/A,Snow,Light Snow,320,2013-01-19 22:55:00
5:15 PM,12.2,3.2,67,29.84,3.0,NNW,29.9,38.0,N/A,,Haze,330,2013-01-19 23:15:00
5:35 PM,12.2,-2.2,53,29.87,10.0,NNW,20.7,38.0,N/A,,Overcast,330,2013-01-19 23:35:00
5:55 PM,10.4,-2.2,57,29.89,10.0,NNW,21.9,33.4,N/A,,Mostly Cloudy,330,2013-01-19 23:55:00
6:15 PM,10.4,-4.0,52,29.91,10.0,NNW,16.1,34.5,N/A,,Scattered Clouds,330,2013-01-20 00:15:00
6:35 PM,8.6,-4.0,57,29.93,10.0,NNW,21.9,38.0,N/A,,Mostly Cloudy,340,2013-01-20 00:35:00
6:55 PM,6.8,-5.8,56,29.95,10.0,NNW,24.2,35.7,N/A,,Overcast,340,2013-01-20 00:55:00
7:15 PM,6.8,-5.8,56,29.97,10.0,NNW,18.4,27.6,N/A,,Overcast,330,2013-01-20 01:15:00
7:35 PM,6.8,-5.8,56,29.98,10.0,NNW,21.9,27.6,N/A,,Overcast,330,2013-01-20 01:35:00
7:55 PM,5.0,-5.8,61,30.00,10.0,NNW,19.6,32.2,N/A,,Overcast,330,2013-01-20 01:55:00
8:15 PM,5.0,-5.8,61,30.02,10.0,NNW,18.4,27.6,N/A,,Overcast,330,2013-01-20 02:15:00
8:35 PM,5.0,-4.0,66,30.03,10.0,NNW,17.3,25.3,N/A,,Overcast,340,2013-01-20 02:35:00
8:55 PM,5.0,-4.0,66,30.05,10.0,NNW,15.0,20.7,N/A,,Overcast,340,2013-01-20 02:55:00
9:15 PM,5.0,-4.0,66,30.06,10.0,NNW,17.3,23.0,N/A,,Overcast,340,2013-01-20 03:15:00
9:35 PM,5.0,-4.0,66,30.08,10.0,NNW,16.1,23.0,N/A,,Mostly Cloudy,340,2013-01-20 03:35:00
9:55 PM,5.0,-4.0,66,30.09,10.0,NNW,16.1,19.6,N/A,,Mostly Cloudy,340,2013-01-20 03:55:00
10:15 PM,5.0,-4.0,66,30.10,10.0,North,15.0,18.4,N/A,,Mostly Cloudy,350,2013-01-20 04:15:00
10:35 PM,5.0,-4.0,66,30.11,10.0,North,13.8,20.7,N/A,,Scattered Clouds,350,2013-01-20 04:35:00
10:55 PM,3.2,-5.8,66,30.12,10.0,NNW,13.8,17.3,N/A,,Clear,340,2013-01-20 04:55:00
11:15 PM,3.2,-5.8,66,30.13,10.0,NNW,12.7,17.3,N/A,,Clear,340,2013-01-20 05:15:00
11:35 PM,3.2,-5.8,66,30.13,10.0,North,13.8,18.4,N/A,,Clear,350,2013-01-20 05:35:00
11:55 PM,3.2,-5.8,66,30.14,10.0,NNW,9.2,-,N/A,,Clear,330,2013-01-20 05:55:00